Hourly Data Report for September 01, 2017

All times are specified in Local Standard Time (LST). Add 1 hour to adjust for Daylight Saving Time where and when it is observed.

KITCHENER/WATERLOO
ONTARIO

43°27'39.000" N
80°22'43.000" W
321.60 m
6144239
71368
YKF

Download Data

Hourly Data (September 2017)
Hourly Data Report for September 1, 2017
Temp Definition
°C
Dew Point Temp Definition
°C
Rel Hum Definition
%
Wind Dir Definition
10's deg

Wind Spd Definition
km/h
Visibility Definition
km
Stn Press Definition
kPa
Hmdx Definition


Wind Chill Definition


Weather Definition


TIME
00:00 Legend Double Dagger 7.9 6.2 89 33 5 16.1 98.50     LegendNANA
01:00 Legend Double Dagger 7.8 6.9 94 33 8 16.1 98.53     LegendNANA
02:00 Legend Double Dagger 7.3 5.8 90 1 5 16.1 98.51     LegendNANA
03:00 Legend Double Dagger 6.7 5.2 90 35 9 16.1 98.54     LegendNANA
04:00 Legend Double Dagger 6.8 5.1 89 1 9 16.1 98.58     LegendNANA
05:00 Legend Double Dagger 6.7 4.6 87 2 5 16.1 98.60     LegendNANA
06:00 Legend Double Dagger 6.0 4.6 91 36 11 16.1 98.61     LegendNANA
07:00 Legend Double Dagger 7.4 5.3 87 2 9 16.1 98.68     LegendNANA
08:00 Legend Double Dagger 9.5 6.4 81 1 11 16.1 98.69     LegendNANA
09:00 Legend Double Dagger 11.5 6.5 71 5 11 16.1 98.72     LegendNANA
10:00 Legend Double Dagger 13.0 5.2 59 4 13 16.1 98.69     LegendNANA
11:00 Legend Double Dagger 13.8 5.9 59 5 8 16.1 98.67     LegendNANA
12:00 Legend Double Dagger 14.3 6.7 60 1 8 16.1 98.57     LegendNANA
13:00 Legend Double Dagger 15.8 6.2 53 9 8 16.1 98.57     LegendNANA
14:00 Legend Double Dagger 16.0 6.3 52 LegendMM 11 16.1 98.53     LegendNANA
15:00 Legend Double Dagger 16.9 6.2 49 9 5 16.1 98.48     LegendNANA
16:00 Legend Double Dagger 17.0 6.2 49 6 5 16.1 98.42     LegendNANA
17:00 Legend Double Dagger 16.7 4.2 43 LegendMM 4 16.1 98.40     LegendNANA
18:00 Legend Double Dagger 14.9 8.4 65 3 5 16.1 98.38     LegendNANA
19:00 Legend Double Dagger 11.9 8.3 78 6 4 16.1 98.37     LegendNANA
20:00 Legend Double Dagger 9.5 7.9 90   0 16.1 98.43     LegendNANA
21:00 Legend Double Dagger 9.2 7.8 91 8 5 16.1 98.42     LegendNANA
22:00 Legend Double Dagger 9.2 6.7 84 5 9 16.1 98.43     LegendNANA
23:00 Legend Double Dagger 7.7 6.0 89 7 5 16.1 98.46     LegendNANA

Notes on Data Quality.

Legend

  • E = Estimated
  • M = Missing
  • NA = Not Available
  • ‡ = Partner data that is not subject to review by the National Climate Archives
Date modified: